Location: Owatonna
(44.0840°N, 93.2260°W)
Time: 15:00:01
(UTC-05:00)

Envisat - Visible Passes

Search period start: 26 June 2022 00:00
Search period end: 06 July 2022 00:00
Orbit: 764 x 765 km, 98.2° (Epoch: 26 June)

Date Brightness Start Highest point End Pass type
(mag) Time Alt. Az. Time Alt. Az. Time Alt. Az.
28 Jun 5.7 04:23:09 10° ENE 04:25:24 13° E 04:27:38 10° ESE visible
30 Jun 5.3 04:46:55 10° NE 04:50:51 22° E 04:54:45 10° SE visible
03 Jul 5.5 04:35:35 10° NE 04:38:56 17° E 04:42:17 10° SE visible
05 Jul 4.9 04:59:54 10° NE 05:04:20 29° E 05:08:44 10° SSE visible
